Regional Weather Roundup
Issued by NWS

Home | Current Version | Previous Version | Text Only | Print | Product List | Glossary Off
Versions: 1 2 3 4 5 6 7 8 9 10 11 12 13 14 15 16 17 18 19 20 21 22 23 24 25 26 27 28 29 30 31 32 33 34 35 36 37 38 39 40 41 42 43 44 45 46 47 48 49 50

000
ASUS43 KIND 261059
RWRIN

WEATHER ROUNDUP FOR INDIANA
NATIONAL WEATHER SERVICE INDIANAPOLIS IN
700 AM EDT SAT JUL 26 2014

NOTE: "FAIR" INDICATES FEW OR NO CLOUDS BELOW 12,000 FEET WITH NO
SIGNIFICANT WEATHER AND/OR OBSTRUCTIONS TO VISIBILITY.

* - STATION DOES NOT REPORT WEATHER SUCH AS PRECIPITATION OR FOG.

+ - STATION NOT QUALITY CONTROLLED BY THE NATIONAL WEATHER SERVICE.
    USE DATA WITH CAUTION...ESPECIALLY DEWPOINT AND RELATIVE
    HUMIDITY OBSERVATIONS.

INZ001>003-010>013-019-020-261200-
NORTHWEST INDIANA

CITY           SKY/WX    TMP DP  RH WIND       PRES   REMARKS
GARY /AIRPORT/ MOCLDY    70  61  73 S5        29.87F
RENSSELAER +   CLOUDY    66  63  88 S5        29.89S
VALPARAISO     CLOUDY    64  60  87 S3        29.88F

$$

LMZ046-743>745-261200-
SOUTHERN LAKE MICHIGAN

STATION/POSITION TIME  TEMP WIND        PRES
                       AIR  DIR/SP/G
                 (UTC) (F)  (DEG/KT/KT) (MB)
BURNS HARBOR     1000   67  200/  8/ 11 1011.9S
MICHIGAN CITY    1000   66  180/  5/  7   N/A

$$

INZ004-005-014>016-021>024-261200-
NORTH CENTRAL INDIANA

CITY           SKY/WX    TMP DP  RH WIND       PRES   REMARKS
GOSHEN         CLEAR     61  57  87 SE5       29.90F
SOUTH BEND     PTCLDY    63  58  83 S3        29.90R

$$

INZ006>009-017-018-025>027-261200-
NORTHEAST INDIANA

CITY           SKY/WX    TMP DP  RH WIND       PRES   REMARKS
ANGOLA *+      PTCLDY    57  55  94 CALM      29.93R
FORT WAYNE     PTCLDY    61  58  90 S3        29.92F FOG

$$

INZ028-029-035-036-043>045-051>053-261200-
WEST CENTRAL INDIANA

CITY           SKY/WX    TMP DP  RH WIND       PRES   REMARKS
GREENCASTLE +  CLOUDY    68  59  73 S5        29.92F
LAFAYETTE      CLOUDY    68  60  75 CALM      29.90S
TERRE HAUTE    MOCLDY    69  60  73 S10       29.91F

$$

INZ030>032-037>040-046>048-054>057-064-065-261200-
CENTRAL INDIANA

CITY           SKY/WX    TMP DP  RH WIND       PRES   REMARKS
COLUMBUS       CLOUDY    66  64  94 S6        29.96
INDIANAPOLIS   CLOUDY    69  59  70 S10       29.91F
-EAGLE CREEK   CLOUDY    68  59  73 S5        29.92F
KOKOMO *+      CLOUDY    68  59  73 SW10      29.91F
MT COMFORT *+  PTCLDY    66  66 100 S5        29.94S
SHELBYVILLE    CLOUDY    69  62  78 S7        29.93F

$$

INZ033-034-041-042-049-050-058-059-261200-
EAST CENTRAL INDIANA

CITY           SKY/WX    TMP DP  RH WIND       PRES   REMARKS
MUNCIE         PTCLDY    68  59  73 SW8       29.92F

$$

INZ060-061-067>069-081>083-085>088-261200-
SOUTHWEST INDIANA

CITY           SKY/WX    TMP DP  RH WIND       PRES   REMARKS
EVANSVILLE     CLEAR     67  61  81 SW3       29.96S
HUNTINGBURG *+ CLEAR     64  57  77 SW5       29.97R

$$

INZ062-063-066-070>080-084-089>092-261200-
SOUTH CENTRAL AND SOUTHEAST INDIANA

CITY           SKY/WX    TMP DP  RH WIND       PRES   REMARKS
BLOOMINGTON    CLOUDY    68  59  73 S8        29.94F
SEYMOUR +      MOCLDY    61  52  72 S5        29.95

$$



USA.gov is the U.S. government's official web portal to all federal, state and local government web resources and services.